Regional Weather Roundup
Issued by NWS Kansas City/Pleasant Hill, MO

Home | Current Version | Previous Version | Text Only | Print | Product List | Glossary On
Versions: 1 2 3 4 5 6 7 8 9 10 11 12 13 14 15 16 17 18 19 20 21 22 23 24 25 26 27 28 29 30 31 32 33 34 35 36 37 38 39 40 41 42 43 44 45 46 47 48 49 50
000
ASUS43 KEAX 240610
RWREAX

WEATHER ROUNDUP FOR EASTERN KANSAS AND NORTHWEST MISSOURI
NATIONAL WEATHER SERVICE KANSAS CITY/PLEASANT HILL MO
100 AM CDT TUE OCT 24 2017

KSZ040-057-103>105-MOZ028-029-037-043-240700-
...KANSAS CITY METROPOLITAN AREA...

CITY           SKY/WX    TMP DP  RH WIND       PRES   REMARKS
K.C. INTL      MOCLDY    50  34  54 NW14      30.04F
6HR MIN TEMP:  48; 6HR MAX TEMP:  60;

K.C. DOWNTOWN  MOCLDY    53  34  48 W13G22    30.04F
6HR MIN TEMP:  51; 6HR MAX TEMP:  64;

LEES SUMMIT    LGT RAIN  50  34  54 W13       30.04F
6HR MIN TEMP:  50; 6HR MAX TEMP:  62; 6HR PCP: TRACE;

OLATHE - IXD   MOCLDY    50  35  56 W12       30.08F
6HR MIN TEMP:  48; 6HR MAX TEMP:  60;

OLATHE - OJC   PTCLDY    49  33  54 W14G20    30.06F
6HR MIN TEMP:  49; 6HR MAX TEMP:  60;

LAWRENCE       MOCLDY    51  35  54 W15       30.09F

$$

MOZ001>008-011>017-020>025-030>033-038>040-044>046-053-054-240700-
...NORTHERN AND CENTRAL MISSOURI...

CITY           SKY/WX    TMP DP  RH WIND       PRES   REMARKS
ST. JOSEPH     LGT RAIN  51  35  54 NW16G24   30.03F
6HR MIN TEMP:  49; 6HR MAX TEMP:  59; 6HR PCP: TRACE;

MOSBY          PTCLDY    50  32  50 W9        30.02F
WARRENSBURG    CLEAR     46  32  57 W9        30.02F
WHITEMAN AFB   PTCLDY    48  33  56 W9        29.97F
6HR MIN TEMP:  48; 6HR MAX TEMP:  59;

CLINTON        PTCLDY    46  32  57 W7        30.04F
SEDALIA        MOCLDY    50  36  58 W10       30.01F
6HR MIN TEMP:  50; 6HR MAX TEMP:  59; 6HR PCP: TRACE;

WARSAW         NOT AVBL
CHILLICOTHE      N/A     50  33  52 VRB7      29.97F
6HR MIN TEMP:  50; 6HR MAX TEMP:  60;

KIRKSVILLE     CLOUDY    50  35  56 W16G24    29.89F
6HR MIN TEMP:  50; 6HR MAX TEMP:  54; 6HR PCP: TRACE;


$$

MOZ041-047>049-056>058-063>065-088>090-097-240700-
...EASTERN AND SOUTHERN MISSOURI...

CITY           SKY/WX    TMP DP  RH WIND       PRES   REMARKS
ST. LOUIS INTL CLOUDY    54  39  57 W16G24    29.84F
6HR MIN TEMP:  54; 6HR MAX TEMP:  61; 6HR PCP: TRACE;

SPIRIT OF STL  CLOUDY    55  38  52 W14G26    29.85F
COLUMBIA       CLOUDY    52  33  48 W14       29.94F
JEFFERSON CITY CLOUDY    53  32  44 W12       29.96F
ROLLA          MOCLDY    51  33  50 NW18G25   29.96R
OSAGE BEACH    CLEAR     52  33  48 W8        30.01F
SPRINGFIELD    CLEAR     51  34  52 NW8       30.07S
BRANSON        CLEAR     54  32  43 NW10G20   30.08S
JOPLIN         CLEAR     51  35  54 W12       30.13F
WEST PLAINS    CLEAR     54  34  46 W8        30.00S

$$

IAZ060-094-KSZ022-034>040-054-083-096-NEZ052-066-093-240700-
...KANSAS...SOUTHEAST NEBRASKA AND IOWA...

CITY           SKY/WX    TMP DP  RH WIND       PRES   REMARKS
TOPEKA         CLEAR     51  35  54 W9        30.10F
6HR MIN TEMP:  51; 6HR MAX TEMP:  60;

MANHATTAN      CLEAR     49  34  56 W9        30.17F
EMPORIA        CLEAR     46  33  60 W7        30.16F
CHANUTE        CLEAR     52  33  48 NW12      30.15F
WICHITA        CLEAR     51  30  44 NW10      30.25S
OMAHA          PTCLDY    52  33  48 W16G30    30.03S
LINCOLN        CLOUDY    53  31  42 MISG      30.11F
FALLS CITY     CLOUDY    50  36  58 W17       30.05F
LAMONI         PTCLDY    46  34  62 W15       29.93F
DES MOINES     PTCLDY    48  33  56 NW16G25   29.88F

$$




USA.gov is the U.S. government's official web portal to all federal, state and local government web resources and services.